Regional Weather Roundup
Issued by NWS Austin/San Antonio, TX

Home | Current Version | Previous Version | Text Only | Print | Product List | Glossary On
Versions: 1 2 3 4 5 6 7 8 9 10 11 12 13 14 15 16 17 18 19 20 21 22 23 24 25 26 27 28 29 30 31 32 33 34 35 36 37 38 39 40 41 42 43 44 45 46 47 48 49 50
000
ASUS44 KEWX 250210
RWREWX
SOUTH TEXAS REGIONAL WEATHER ROUNDUP
NATIONAL WEATHER SERVICE AUSTIN/SAN ANTONIO TX
900 PM CDT THU MAY 24 2018

NOTE: "FAIR" INDICATED FEW OR NO CLOUDS BELOW 12,000 FEET WITH NO
SIGNIFICANT WEATHER AND/OR OBSTRUCTIONS TO VISIBILITY.

* - THESE STATIONS ARE NOT NWS OR FAA STATIONS...AND ARE NOT SUBJECT
    TO NWS AND FAA QUALITY CONTROL.

TXZ171-172-183>190-250300-
TEXAS HILL COUNTRY AND EDWARDS PLATEAU

CITY           SKY/WX    TMP DP  RH WIND       PRES   REMARKS
JUNCTION       CLEAR     86  62  44 SE8       30.01R
*LLANO         CLEAR     81  64  57 CALM      30.02R
BURNET         CLEAR     82  66  58 CALM      30.02R
*HORSESHOE BAY CLEAR     83  65  55 SE3       30.00R
*KERRVILLE     CLEAR     79  64  60 SE3       30.02S
*FREDERICKSBRG PTCLDY    81  60  48 CALM      30.02R
*ROCKSPRINGS   CLEAR     79  61  53 SE10      30.09S
*BOERNE STAGE  CLEAR     77  63  61 CALM      30.02S
*CASTROVILLE   CLEAR     85  63  46 CALM      29.99R
HONDO          CLEAR     81  68  64 E3        29.98R
*UVALDE        CLEAR     81  66  60 E6        29.98R
DEL RIO        CLOUDY    88  66  48 E9        29.93R HX  90
LAUGHLIN AFB   MOCLDY    87  66  49 E12       29.94R
CARRIZO SPRGS  CLEAR     86  63  45 E3        29.93R
*EAGLE PASS    CLEAR     90  59  35 E7        29.95R
*FAITH RANCH   CLEAR     91  59  33 E6        29.94R HX  90
$$

TXZ173-191>194-202-209-217>225-228-250300-
CENTRAL AND SOUTH CENTRAL TEXAS

CITY           SKY/WX    TMP DP  RH WIND       PRES   REMARKS
GEORGETOWN     CLEAR     84  68  58 SE5       30.01R
AUSTIN/BERGSTM PTCLDY    83  69  62 SE5       29.97R
AUSTIN/MABRY   CLEAR     85  67  54 SE3       29.99R
*AUSTIN/EXEC   CLEAR     81  68  65 MISG      29.99R
*LAGO VISTA    CLEAR     82  67  59 CALM      30.02R
SAN MARCOS     CLEAR     80  71  74 SE7       29.99R
NEW BRAUNFELS  CLEAR     80  71  74 SE6       29.97R
RANDOLPH AFB   CLEAR     80  71  74 SE6       29.98R
PT SAN ANTONIO CLEAR     86  69  56 SE10      29.96R
SAN ANTONIO    PTCLDY    85  67  54 SE12      29.99R
STINSON FIELD  CLEAR     86  70  58 SE9       29.96R HX  90
*LA GRANGE     CLEAR     80  72  75 SE3       29.97R
*GIDDINGS      CLEAR     78  70  77 S3        30.00R
*GONZALES      CLEAR     82  70  66 CALM      29.98R
$$

TXZ163>164-176>182-195>201-210>213-226-227-235-250300-
SOUTHEAST TEXAS

CITY           SKY/WX    TMP DP  RH WIND       PRES   REMARKS
COLLEGE STN    CLEAR     81  72  74 SE9       29.99R
*BRYAN         CLEAR     79  73  80 SE7       30.00R
*CALDWELL      CLEAR     80  72  76 S9        29.99R
*CROCKETT      LGT RAIN  81  70  69 CALM      30.03R
*BRENHAM       PTCLDY    81  71  71 S6        30.00R
HUNTSVILLE     CLEAR     82  69  64 VRB3      30.00R
CONROE         CLEAR     78  76  93 SE6       30.00R
HOUSTON BUSH   FAIR      79  70  74 SE10      29.99R
HOUSTON HOBBY  FAIR      78  73  84 SE7       29.99R
*HOUSTON SW AP FAIR      75  71  87 CALM      30.00S
PEARLAND       FAIR      79  72  79 SE5       30.00S
HOUSTON HOOKS  FAIR      81  72  74 SE7       29.99R
ELLINGTON FLD  PTCLDY    79  72  78 SE5       30.00S
SUGAR LAND     FAIR      80  71  74 SE6       29.99R
*HOUSTON EXEC    N/A     79  73  83 S7        30.00S
*CLEVELAND MUN FAIR      75  71  87 CALM      30.01R
*WHARTON       CLEAR     76  72  87 E3        29.99R
*COLUMBUS      FAIR      76  73  88 E5        30.00R
*EAGLE LAKE    CLEAR     76  74  93 SE5       29.99R
$$

TXZ214>216-236>238-250300-
THE UPPER TEXAS COAST

CITY           SKY/WX    TMP DP  RH WIND       PRES   REMARKS
*ORANGE        FAIR      76  73  88 CALM      30.02S
PORT ARTHUR    FAIR      77  72  84 CALM      29.99S
GALVESTON      FAIR      79  75  87 SE9       30.00R
ANGLETON       FAIR      78  73  84 CALM      29.99R
*BAY CITY      CLEAR     79  73  83 E5        29.98S
PALACIOS       CLEAR     79  76  90 SE7       29.98R
$$

TXZ229>234-239>247-250300-
TEXAS COASTAL BEND AND RIO GRANDE PLAINS

CITY           SKY/WX    TMP DP  RH WIND       PRES   REMARKS
VICTORIA       PTCLDY    80  72  76 SE10      29.98R
*BEEVILLE      CLEAR     80  72  74 SE5       29.97R
ROCKPORT       PTCLDY    80  74  81 SE10      29.97R
*PORT ARANSAS  NOT AVBL
*PORT LAVACA   PTCLDY    78  72  81 SE5       29.98R
*INGLESIDE     CLEAR     80  74  80 SE7       29.97R
CORPUS CHRISTI PTCLDY    80  75  84 SE7       29.96R
CORPUS NAS     PTCLDY    82  75  79 SE15      29.96R
*ROBSTOWN      CLEAR     80  74  82 SE7       29.97R
ALICE          CLEAR     81  72  74 SE10      29.96R
KINGSVILLE NAS PTCLDY    81  74  79 SE9       29.97R
COTULLA        CLEAR     89  63  41 E7        29.93R HX  90
LAREDO         PTCLDY    89  70  53 SE23      29.93R HX  94
$$

TXZ248>255-250300-
DEEP SOUTH TEXAS

CITY           SKY/WX    TMP DP  RH WIND       PRES   REMARKS
BROWNSVILLE    FAIR      82  76  81 SE8       29.97R
PORT ISABEL    FAIR      82  74  76 SE12      29.96R
*SOUTH PADRE   NOT AVBL
HARLINGEN      PTCLDY    81  76  84 E10       29.96R
*HEBBRONVILLE  CLEAR     83  67  59 SE12      29.98R
MCALLEN        CLEAR     87  73  62 E12       29.96R HX  94
*WESLACO       NOT AVBL
FALFURRIAS     CLEAR     83  71  66 SE9       29.96R
EDINBURG       FAIR      84  72  66 E10       29.97R HX  90
*ZAPATA        FAIR      87  68  53 SE12G18   29.94R HX  90
$$

TXZ213>215-236>238-242>244-246-247-251-254-255-250300-
CMAN STATIONS

STATION/POSITION TIME  TEMP    WIND        PRES    WAVE
                       AIR SEA DIR/SP/G            HT/PER
                 (UTC) (F)     (DEG/KT/KT) (MB)    (FT/S)
SABINE PASS      0142   79 87  160/  5/  5 1017.3
SEA RIM ST PARK  0200   79     140/  4/  5 1016.3
NORTH JETTY/GLS  0142   80 84  130/ 11/ 12 1015.1
EAGLE POINT      0142   80 84  150/ 11/ 13 1015.5
MORGANS POINT    0142   80 84  150/  6/  9 1015.7
PORT O`CONNOR    0142   80 85  110/ 12/ 13 1014.7
PORT ARANSAS     0200   80 83  120/ 12/ 14 1014.7
MALAQUITE BEACH  0142   81 85  100/ 13/ 14 1014.0
BAFFIN BAY       0142   81 88  100/ 12/ 14 1014.8
PORT ISABEL      0142   81 84  120/ 11/ 13 1014.7
$$



USA.gov is the U.S. government's official web portal to all federal, state and local government web resources and services.